Home   Weather   Neunkirchen (Saar)   Past weeks

Flag for Germany Past Weather in Neunkirchen (Saar), Saarland, Germany — Yesterday and Last 2 Weeks

46 °F


Feels Like: 46 °F
Forecast: 41 / 57 °F
Wind: 2 mph from North

Location: Saarbruecken / Ensheim

Current Time: Oct 28, 2016 at 9:52:56 PM

Latest Report: Oct 28, 2016 at 9:20 PM

Visibility: 2 mi

Pressure: 30.57 "Hg

Humidity: 93%

Dew Point: 45 °F

Location of Neunkirchen (Saar)Location

Past Weather in Neunkirchen (Saar) — Graph


Neunkirchen (Saar) Temperature Yesterday

Maximum temperature yesterday: 46 °F (at 3:20 PM)
Minimum temperature yesterday: 37 °F (at 3:50 AM)
Average temperature yesterday: 42 °F

High & Low Weather Summary for the Past Weeks

High64 °F (Oct 16, 2:20 PM)100% (Oct 14, 9:50 PM)30.60 "Hg (Oct 14, 9:50 PM)
Low36 °F (Oct 21, 10:50 PM)56% (Oct 16, 3:20 PM)29.65 "Hg (Oct 14, 4:50 PM)
Average47 °F91%30.09 "Hg
* Reported Oct 13 8:20 PM — Oct 28 8:50 PM, Neunkirchen (Saar), Weather by CustomWeather, © 2016

Note: Actual official high and low records may vary slightly from our data, if they occured in-between our weather recording intervals... More about our weather records


Neunkirchen (Saar) Weather History for the Previous 24 Hours

Scroll right to see more
Time TempWeatherWind HumidityBarometerVisibility
8:50 PM
Fri, Oct 28
46 °FFog.2 mph93%30.57 "Hg2 mi
8:20 PM46 °FFog.2 mph93%30.57 "Hg2 mi
7:50 PM46 °FFog.2 mph93%30.57 "Hg3 mi
7:20 PM46 °FFog.3 mph93%30.57 "Hg3 mi
6:50 PM46 °FFog.5 mph93%30.57 "Hg2 mi
6:20 PM46 °FFog.6 mph100%30.57 "Hg3 mi
5:50 PM48 °FFog.2 mph94%30.57 "Hg3 mi
5:20 PM48 °FLow clouds.5 mph94%30.57 "Hg4 mi
4:50 PM48 °FLow clouds.3 mph94%30.54 "Hg4 mi
4:20 PM48 °FFog.6 mph94%30.54 "Hg3 mi
3:50 PM48 °FFog.5 mph94%30.57 "Hg3 mi
3:20 PM48 °FFog.2 mph94%30.57 "Hg3 mi
2:50 PM46 °FFog.3 mph93%30.57 "Hg3 mi
2:20 PM46 °FFog.3 mph93%30.57 "Hg2 mi
1:50 PM45 °FQuite cool.3 mph100%30.57 "Hg1 mi
1:20 PM45 °FFog.2 mph100%30.57 "Hg0 mi
12:50 PM43 °FFog.5 mph100%30.60 "Hg0 mi
12:20 PM43 °FFog.5 mph100%30.57 "Hg0 mi
11:50 AM41 °FFog.3 mph100%30.57 "Hg0 mi
11:20 AM43 °FFog.3 mph100%30.57 "Hg0 mi
10:50 AM41 °FFog.3 mph100%30.57 "Hg0 mi
10:20 AM39 °FFog.2 mph100%30.57 "Hg0 mi
9:50 AM39 °FFog.3 mph100%30.54 "Hg0 mi
9:20 AM39 °FFog.2 mph100%30.54 "Hg0 mi
8:50 AM39 °FFog.3 mph100%30.54 "Hg0 mi
8:20 AM39 °FFog.3 mph100%30.54 "Hg0 mi
7:50 AM41 °FFog.3 mph100%30.54 "Hg0 mi
7:20 AM41 °FFog.2 mph100%30.51 "Hg0 mi
6:50 AM41 °FFog.3 mph100%30.54 "Hg0 mi
6:20 AM39 °FFog.2 mph100%30.54 "Hg0 mi
5:50 AM41 °FFog.2 mph100%30.54 "Hg0 mi
5:20 AM41 °FFog.1 mph100%30.51 "Hg0 mi
4:50 AM41 °FFog.3 mph100%30.51 "Hg0 mi
4:20 AM41 °FFog.3 mph100%30.51 "Hg0 mi
3:50 AM41 °FFog.2 mph100%30.54 "Hg0 mi
3:20 AM41 °FPassing clouds.2 mph100%30.51 "Hg0 mi
2:50 AM41 °FPassing clouds.2 mph100%30.54 "Hg0 mi
2:20 AM43 °FClear.2 mph100%30.54 "Hg0 mi
1:50 AM43 °FClear.2 mph100%30.54 "Hg0 mi
1:20 AM43 °FPassing clouds.2 mph100%30.54 "Hg0 mi
12:50 AM43 °FPassing clouds.3 mph100%30.54 "Hg0 mi
12:20 AM43 °FPassing clouds.2 mph100%30.54 "Hg0 mi
11:50 PM
Thu, Oct 27
43 °FClear.3 mph100%30.54 "Hg0 mi
11:20 PM43 °FClear.2 mph100%30.54 "Hg0 mi
10:50 PM43 °FFog.2 mph100%30.54 "Hg0 mi
10:20 PM45 °FFog.1 mph93%30.54 "Hg0 mi
9:50 PM45 °FFog.1 mph100%30.54 "Hg0 mi
9:20 PM45 °FFog.2 mph100%30.54 "Hg0 mi
Weather by CustomWeather, © 2016

See weather overviewHow to use our weather pages